"Pseudo-MPEC" for C1RUWM2

Created 2020 Jan 15 19:07:12 UT using Find_Orb

Click here for an explanation of pseudo-MPECs

 
 Astrometry: 
     C1RUWM2  C2020 01 14.40440 13 21 36.13 +51 46 05.4    ~1EAb 20.7 GVNEOCPG96
     C1RUWM2  C2020 01 14.41011 13 21 40.93 +51 46 03.4    ~1EAb 20.5 GVNEOCPG96
     C1RUWM2  C2020 01 14.41530 13 21 45.41 +51 46 01.2    ~1EAb 20.2 GVNEOCPG96
     C1RUWM2  C2020 01 14.42049 13 21 49.86 +51 45 59.0    ~1EAb 20.3 GVNEOCPG96
     C1RUWM2  C2020 01 14.44177313 22 07.54 +51 45 49.8    ~1EBM 20.4 GVNEOCPH01
     C1RUWM2  C2020 01 14.44652113 22 11.57 +51 45 47.6    ~1EBM 19.9 GVNEOCPH01
     C1RUWM2  C2020 01 14.45899713 22 22.17 +51 45 41.5    ~1EBM 20.3 GVNEOCPH01
     C1RUWM2  C2020 01 14.46373013 22 26.20 +51 45 39.3    ~1EBM 19.9 GVNEOCPH01
     C1RUWM2  C2020 01 14.50261 13 22 59.56 +51 45 18.3    ~1ECM 19.9 GVNEOCPI52
     C1RUWM2  C2020 01 14.50358 13 23 00.29 +51 45 18.4    ~1ECM 20.5 GVNEOCPI52
     C1RUWM2  C2020 01 14.50456 13 23 01.10 +51 45 17.2    ~1ECM 20.4 GVNEOCPI52
     C1RUWM2  C2020 01 14.50553 13 23 01.98 +51 45 16.8    ~1ECM 20.4 GVNEOCPI52
     C1RUWM2  C2020 01 14.53093 13 23 23.45 +51 45 01.5    ~1ED7 20.1 GVNEOCPI52
     C1RUWM2  C2020 01 14.53190 13 23 24.26 +51 45 01.2    ~1ED7 19.6 GVNEOCPI52
     C1RUWM2  C2020 01 14.53287 13 23 25.03 +51 45 00.1    ~1ED7 20.1 GVNEOCPI52
     C1RUWM2  C2020 01 15.53952 13 38 43.84 +51 29 37.2    ~1FDM 20.4 GVNEOCPI52
     C1RUWM2  C2020 01 15.54098 13 38 45.21 +51 29 35.5    ~1FDM 20.4 GVNEOCPI52
     C1RUWM2  C2020 01 15.54184 13 38 45.91 +51 29 34.6    ~1FDM 20.1 GVNEOCPG96
     C1RUWM2  C2020 01 15.54242 13 38 46.42 +51 29 33.8    ~1FDM 20.2 GVNEOCPG96
     C1RUWM2  C2020 01 15.54244 13 38 46.48 +51 29 33.8    ~1FDM 19.8 GVNEOCPI52
     C1RUWM2  C2020 01 15.54300 13 38 46.95 +51 29 33.3    ~1FDM 20.4 GVNEOCPG96
     C1RUWM2  C2020 01 15.54358 13 38 47.45 +51 29 32.4    ~1FDM 20.0 GVNEOCPG96

Station data:
(G96) Mt. Lemmon Survey  (N32.442754 W110.788720)  US/Arizona.  Observers T.
   A. Pruyne, B. M. Africano, E. J. Christensen, G. A. Farneth, D. C. Fuls,
   A. R. Gibbs, A. D. Grauer, H. Gröller, J. A. Johnson, R. A. Kowalski, S.
   M. Larson, G. J. Leonard, D. Rankin, R. L. Seaman, F. C. Shelly. 1.5-m
   reflector + 10K CCD.
(H01) Magdalena Ridge Observatory, Socorro  (N33.984833 W107.189333)  US/New
   Mexico.  Observers W. H. Ryan, E. V. Ryan. Measurer W. H. Ryan. 2.4-m
   f/8.9 reflector + CCD.
(I52) Steward Observatory, Mt. Lemmon Station  (N32.442547 W110.788920)
   US/Arizona.  Observers T. A. Pruyne, B. M. Africano, E. J. Christensen, G.
   A. Farneth, D. C. Fuls, A. R. Gibbs, A. D. Grauer, H. Gröller, J. A.
   Johnson, R. A. Kowalski, S. M. Larson, G. J. Leonard, D. Rankin, R. L.
   Seaman, F. C. Shelly. 1.0-m reflector + CCD.

Orbital elements:  C1RUWM2
   Perihelion 2020 Mar 30.007704 +/- 0.614 TT =  0:11:05 (JD 2458938.507704)
Epoch 2020 Jan 15.0 TT = JDT 2458863.5   Earth MOID: 0.0147   Ve: 0.0844
M 289.53726959 +/- 0.8              (J2000 ecliptic)          AutoNEOCP
n   0.93940657 +/- 0.00432          Peri.  247.94187 +/- 1.6
a   1.03252438 +/- 0.00317          Node   338.34874 +/- 1.1
e   0.3346140 +/- 0.0108            Incl.    8.64115 +/- 0.40
P   1.05/383.21d           H 22.7   G  0.15   U  9.1  
q 0.68702722 +/- 0.0093    Q 1.37802155 +/- 0.0151
From 22 observations 2020 Jan. 14-15 (27.3 hr); mean residual 0".24
Residuals in arcseconds: 
200114 G96  .25+  .07-    200114 I52  .69+  .33-    200115 I52  .60+  .00     
200114 G96  .45-  .18+    200114 I52  .16-  .33+    200115 G96  .09-  .08+    
200114 G96  .04+  .08+    200114 I52  .33-  .31-    200115 G96  .21-  .05-    
200114 G96  .29+  .01+    200114 I52  .22+  .15-    200115 I52  .18+  .03-    
200114 H01  .20-  .09-    200114 I52  .10+  .01-    200115 G96  .13-  .11+    
200114 H01  .18-  .04-    200114 I52  .00   .31+    200115 G96  .34-  .12-    
200114 H01  .03+  .02-    200114 I52  .47-  .17-    
200114 H01  .21+  .18+    200115 I52  .08+  .03+    

Ephemerides (geocentric):
Date (UTC) HH   RA              Dec         delta   r     elong  mag " sig PA
---- -- -- --  -------------   -----------  ------ ------ -----  --- ---- ---
2020 01 15 19  13 42 41.838   +51 23 59.56  .12158 1.0258 107.0 20.5 2.43  84
2020 01 15 20  13 43 21.628   +51 23 04.13  .12138 1.0256 107.0 20.5 2.90  87
2020 01 15 21  13 44 01.511   +51 22 07.69  .12119 1.0253 106.9 20.5 3.39  88
2020 01 15 22  13 44 41.487   +51 21 10.25  .12099 1.0251 106.8 20.5 3.92  90
2020 01 15 23  13 45 21.555   +51 20 11.79  .12079 1.0249 106.7 20.5 4.48  91
2020 01 16 00  13 46 01.716   +51 19 12.31  .12059 1.0246 106.6 20.5 5.06  92
2020 01 16 01  13 46 41.968   +51 18 11.79  .12040 1.0244 106.5 20.5 5.68  93
2020 01 16 02  13 47 22.313   +51 17 10.25  .12020 1.0242 106.5 20.5 6.33  94
2020 01 16 03  13 48 02.748   +51 16 07.65  .12000 1.0239 106.4 20.5 7.01  94
2020 01 16 04  13 48 43.275   +51 15 04.01  .11981 1.0237 106.3 20.5 7.72  95
2020 01 16 05  13 49 23.893   +51 13 59.31  .11961 1.0234 106.2 20.5 8.46  95
2020 01 16 06  13 50 04.601   +51 12 53.54  .11942 1.0232 106.1 20.5 9.23  96
2020 01 16 07  13 50 45.400   +51 11 46.70  .11922 1.0230 106.0 20.5 10.0  96
2020 01 16 08  13 51 26.289   +51 10 38.77  .11903 1.0227 105.9 20.5 10.9  97
2020 01 16 09  13 52 07.268   +51 09 29.76  .11883 1.0225 105.8 20.5 11.7  97
2020 01 16 10  13 52 48.336   +51 08 19.65  .11864 1.0222 105.8 20.5 12.6  97
2020 01 16 11  13 53 29.494   +51 07 08.44  .11845 1.0220 105.7 20.5 13.6  98
2020 01 16 12  13 54 10.740   +51 05 56.12  .11826 1.0218 105.6 20.5 14.5  98
2020 01 16 13  13 54 52.075   +51 04 42.68  .11806 1.0215 105.5 20.5 15.5  98
2020 01 16 14  13 55 33.498   +51 03 28.11  .11787 1.0213 105.4 20.5 16.5  99
2020 01 16 15  13 56 15.009   +51 02 12.42  .11768 1.0211 105.3 20.5 17.6  99
2020 01 16 16  13 56 56.607   +51 00 55.58  .11749 1.0208 105.2 20.5 18.7  99
2020 01 16 17  13 57 38.293   +50 59 37.59  .11730 1.0206 105.1 20.5 19.8  99
2020 01 16 18  13 58 20.065   +50 58 18.44  .11711 1.0203 105.0 20.5 21.0 100
2020 01 16 19  13 59 01.924   +50 56 58.14  .11692 1.0201 105.0 20.5 22.2 100
2020 01 16 20  13 59 43.869   +50 55 36.66  .11673 1.0199 104.9 20.5 23.4 100
2020 01 16 21  14 00 25.899   +50 54 14.00  .11654 1.0196 104.8 20.5 24.7 100
2020 01 16 22  14 01 08.015   +50 52 50.16  .11635 1.0194 104.7 20.5 26.0 100
2020 01 16 23  14 01 50.216   +50 51 25.12  .11616 1.0191 104.6 20.5 27.3 101
2020 01 17 00  14 02 32.501   +50 49 58.88  .11597 1.0189 104.5 20.5 28.7 101
2020 01 17 01  14 03 14.870   +50 48 31.43  .11579 1.0187 104.4 20.5 30.1 101
2020 01 17 02  14 03 57.323   +50 47 02.77  .11560 1.0184 104.3 20.5 31.5 101
2020 01 17 03  14 04 39.859   +50 45 32.88  .11541 1.0182 104.2 20.5 33.0 101
2020 01 17 04  14 05 22.478   +50 44 01.75  .11523 1.0179 104.1 20.5 34.5 102
2020 01 17 05  14 06 05.179   +50 42 29.39  .11504 1.0177 104.0 20.5 36.1 102
2020 01 17 06  14 06 47.962   +50 40 55.78  .11486 1.0175 103.9 20.5 37.7 102
2020 01 17 07  14 07 30.826   +50 39 20.92  .11467 1.0172 103.8 20.5 39.3 102
2020 01 17 08  14 08 13.771   +50 37 44.79  .11449 1.0170 103.7 20.5 41.0 102
2020 01 17 09  14 08 56.796   +50 36 07.39  .11430 1.0168 103.6 20.5 42.7 103
2020 01 17 10  14 09 39.902   +50 34 28.72  .11412 1.0165 103.6 20.5 44.4 103
2020 01 17 11  14 10 23.087   +50 32 48.75  .11393 1.0163 103.5 20.5 46.2 103
2020 01 17 12  14 11 06.351   +50 31 07.50  .11375 1.0160 103.4 20.5 48.0 103
2020 01 17 13  14 11 49.693   +50 29 24.94  .11357 1.0158 103.3 20.5 49.9 103
2020 01 17 14  14 12 33.113   +50 27 41.07  .11339 1.0156 103.2 20.5 51.8 103
2020 01 17 15  14 13 16.611   +50 25 55.89  .11321 1.0153 103.1 20.5 53.7 104
2020 01 17 16  14 14 00.186   +50 24 09.38  .11303 1.0151 103.0 20.5 55.7 104
2020 01 17 17  14 14 43.836   +50 22 21.54  .11284 1.0148 102.9 20.5 57.7 104
2020 01 17 18  14 15 27.563   +50 20 32.36  .11266 1.0146 102.8 20.5 59.8 104